Weather History for Vidsel, Sweden

Change the Weather History Date:

Monday, January 21, 2013

  Actual Average Record
Temperature  
Mean Temperature 11 °F -  
Max Temperature 26 °F - - ()
Min Temperature -4 °F - - ()
Degree Days  
Heating Degree Days 54    
Moisture  
Dew Point 8 °F    
Average Humidity 82    
Maximum Humidity 92    
Minimum Humidity 68    
Precipitation  
Precipitation 0.00 in - - ()
Sea Level Pressure  
Sea Level Pressure 29.92 in    
Wind  
Wind Speed 3 mph ()    
Max Wind Speed 9 mph    
Max Gust Speed -    
Visibility 6.2 miles    
Events      
T = Trace of Precipitation, MM = Missing Value Source: Averaged Metar Reports

Daily Weather History Graph

Daily Weather History Graph

Search for Another Location

Airport:

Trip Planner

Search our weather history database for the weather conditions in past years. The results will help you decide how hot, cold, wet, or windy it might be!

Date:

Astronomy

Jan. 21, 2013 Rise Set
Actual Time 9:11 AM CET 2:31 PM CET
Civil Twilight 7:59 AM CET 3:42 PM CET
Nautical Twilight 6:52 AM CET 4:50 PM CET
Astronomical Twilight 5:51 AM CET 5:51 PM CET
Moon 9:53 AM CET 4:24 AM CET
Length of Visible Light 7h 42m
Length of Day
5h 19m
Waxing Gibbous, 73% of the Moon is Illuminated
Jan 21
Waxing Gibbous
Jan 27
Full
Feb 3
Last Quarter
Feb 10
New
Feb 17
First Quarter

Hourly Weather History & Observations

Time (CET) Temp. Windchill Dew Point Humidity Pressure Visibility Wind Dir Wind Speed Gust Speed Precip Events Conditions
12:20 AM -0.4 °F - -4.0 °F 85% 30.06 in 6.2 mi Variable 2.3 mph - N/A   Unknown
12:50 AM -2.2 °F - -5.8 °F 85% 30.06 in 6.2 mi Variable 1.2 mph - N/A   Unknown
1:20 AM -4.0 °F - -7.6 °F 85% 30.06 in 6.2 mi Calm Calm - N/A   Unknown
1:50 AM -2.2 °F - -5.8 °F 85% 30.06 in 6.2 mi WSW 2.3 mph - N/A   Unknown
2:20 AM -2.2 °F - -5.8 °F 85% 30.04 in 6.2 mi WNW 2.3 mph - N/A   Unknown
2:50 AM -0.4 °F -8.3 °F -4.0 °F 85% 30.04 in 6.2 mi West 3.5 mph - N/A   Unknown
3:20 AM -4.0 °F -12.4 °F -7.6 °F 85% 30.04 in 6.2 mi WNW 3.5 mph - N/A   Partly Cloudy
3:50 AM -0.4 °F - -4.0 °F 85% 30.01 in 6.2 mi Variable 2.3 mph - N/A   Unknown
4:20 AM -0.4 °F -8.3 °F -2.2 °F 92% 30.01 in 6.2 mi WNW 3.5 mph - N/A   Unknown
4:50 AM -2.2 °F - -5.8 °F 85% 30.01 in 6.2 mi Variable 2.3 mph - N/A   Unknown
5:20 AM 3.2 °F -6.2 °F -0.4 °F 85% 30.01 in 6.2 mi West 4.6 mph - N/A   Unknown
5:50 AM -2.2 °F - -5.8 °F 85% 29.98 in 6.2 mi WNW 2.3 mph - N/A   Scattered Clouds
6:20 AM 1.4 °F - -2.2 °F 85% 29.98 in 6.2 mi Variable 2.3 mph - N/A   Unknown
6:50 AM -0.4 °F - -2.2 °F 92% 29.98 in 6.2 mi NNW 2.3 mph - N/A   Unknown
7:20 AM 8.6 °F 0.1 °F 5.0 °F 85% 29.95 in 6.2 mi NW 4.6 mph - N/A   Unknown
7:50 AM 8.6 °F - 5.0 °F 85% 29.95 in 6.2 mi Variable 1.2 mph - N/A   Partly Cloudy
8:20 AM 6.8 °F - 3.2 °F 85% 29.95 in 6.2 mi Variable 1.2 mph - N/A   Scattered Clouds
8:50 AM 10.4 °F - 6.8 °F 85% 29.95 in 6.2 mi Variable 2.3 mph - N/A   Overcast
9:20 AM 6.8 °F - 5.0 °F 92% 29.95 in 6.2 mi Calm Calm - N/A   Overcast
9:50 AM 6.8 °F - 3.2 °F 85% 29.95 in 6.2 mi Calm Calm - N/A   Overcast
10:20 AM 12.2 °F - 8.6 °F 85% 29.95 in 6.2 mi Variable 1.2 mph - N/A   Overcast
10:50 AM 8.6 °F - 3.2 °F 79% 29.95 in 6.2 mi Variable 1.2 mph - N/A   Overcast
11:20 AM 14.0 °F - 10.4 °F 86% 29.92 in 6.2 mi Variable 1.2 mph - N/A   Overcast
11:50 AM 17.6 °F 12.3 °F 10.4 °F 73% 29.92 in 6.2 mi West 3.5 mph - N/A   Overcast
12:20 PM 19.4 °F 14.3 °F 12.2 °F 74% 29.92 in 6.2 mi West 3.5 mph - N/A   Overcast
12:50 PM 21.2 °F 10.9 °F 12.2 °F 68% 29.92 in - NW 9.2 mph - N/A   Clear
1:20 PM 21.2 °F 14.9 °F 14.0 °F 74% 29.92 in - WNW 4.6 mph - N/A   Clear
1:50 PM 19.4 °F 10.4 °F 12.2 °F 74% 29.89 in - WNW 6.9 mph - N/A   Clear
2:20 PM 21.2 °F 13.6 °F 14.0 °F 74% 29.89 in - WNW 5.8 mph - N/A   Clear
2:50 PM 17.6 °F 7.3 °F 14.0 °F 86% 29.89 in - WNW 8.1 mph - N/A   Clear
3:20 PM 19.4 °F 11.5 °F 14.0 °F 80% 29.86 in - NW 5.8 mph - N/A   Clear
3:50 PM 21.2 °F 13.6 °F 15.8 °F 80% 29.86 in - West 5.8 mph - N/A   Clear
4:20 PM 21.2 °F 14.9 °F 15.8 °F 80% 29.86 in - WNW 4.6 mph - N/A   Clear
4:50 PM 19.4 °F 11.5 °F 15.8 °F 86% 29.86 in - West 5.8 mph - N/A   Clear
5:20 PM 21.2 °F 13.6 °F 15.8 °F 80% 29.83 in - West 5.8 mph - N/A   Clear
5:50 PM 21.2 °F 13.6 °F 17.6 °F 86% 29.83 in - West 5.8 mph - N/A   Clear
6:20 PM 23.0 °F 17.0 °F 17.6 °F 80% 29.83 in - West 4.6 mph - N/A   Clear
6:50 PM 23.0 °F 14.7 °F 19.4 °F 86% 29.83 in - West 6.9 mph - N/A   Clear
7:20 PM 24.8 °F 17.9 °F 19.4 °F 80% 29.80 in - WNW 5.8 mph - N/A   Clear
7:50 PM 24.8 °F 19.1 °F 19.4 °F 80% 29.80 in - West 4.6 mph - N/A   Clear
8:20 PM 24.8 °F 17.9 °F 19.4 °F 80% 29.80 in - WNW 5.8 mph - N/A   Clear
8:50 PM 26.6 °F 18.2 °F 19.4 °F 74% 29.80 in - WNW 8.1 mph - N/A   Clear
9:20 PM 26.6 °F 18.2 °F 19.4 °F 74% 29.80 in - WNW 8.1 mph - N/A   Clear
9:50 PM 26.6 °F 18.2 °F 21.2 °F 80% 29.80 in - West 8.1 mph - N/A   Clear
10:20 PM 26.6 °F 19.1 °F 19.4 °F 74% 29.80 in - WNW 6.9 mph - N/A   Clear
10:50 PM 26.6 °F 20.0 °F 19.4 °F 74% 29.80 in 6.2 mi WNW 5.8 mph - N/A   Scattered Clouds
11:20 PM 26.6 °F 19.1 °F 19.4 °F 74% 29.80 in 6.2 mi WNW 6.9 mph - N/A   Partly Cloudy
11:50 PM 24.8 °F - 19.4 °F 80% 29.80 in 6.2 mi Variable 2.3 mph - N/A   Unknown